Tracking 33404 objects as of 6-Mar-2026
HD Live streaming from Space Station
objects crossing your sky now

STARLINK-35605

Track STARLINK-35605 now!
10-day predictions
STARLINK-35605 is classified as:


NORAD ID: 66150
Int'l Code: 2025-240E
Perigee: 481.5 km
Apogee: 483.3 km
Inclination: 53.2 °
Period: 94.1 minutes
Semi major axis: 6853 km
RCS: Unknown
Launch date: October 25, 2025
Source: United States (US)
Launch site: AIR FORCE EASTERN TEST RANGE (AFETR)
Your satellite tracking list
Your tracking list is empty




NASA's NSSDC Master Catalog

Two Line Element Set (TLE):
1 66150U 25240E   26065.32644617  .00022896  00000-0  78285-3 0  9993
2 66150  53.1576  78.4257 0001316  92.8581 267.2571 15.30196303 21479
Source of the keplerian elements: AFSPC